Погода в Михайловке

Россия / Ростовская область     46°42′14″N   40°59′59″E
темп.,
°C
ветер,
м/с
пор.,
м/с
влажн.,
%
обл.,
%
осадки,
мм/ч
давл.,
гПа
погр.,
м
16 мая, вс
вс1600:00+18ссз338586 0.0 101231
03:00+17ссв349017 0.0 101152
06:00+18всв358828 0.0 1010111
09:00+21вюв595733 0.0 1010342
12:00+24в79555 0.0 1009726
15:00+26в712537 0.0 10081127
18:00+24всв4967100 0.0 1006192
21:00+20вюв7165723 0.0 1006343
17 мая, пн
пн1700:00+19вюв818478 0.0 1005498
03:00+16в6155339 0.0 1005340
06:00+15вюв4127073 0.0 1006277
09:00+20юв45605 0.0 1007521
12:00+24вюв22546 0.0 1008785
15:00+25св1153100 0.0 1007947
18:00+24зсз356942 0.0 1007234
21:00+18ссз4889100 0.1 1007150
18 мая, вт
вт1800:00+17зсз61292100 1.7 1008317
03:00+16зсз61395100 1.7 1009467
06:00+15з5119394 0.0 1010440
09:00+16з5788100 0.1 1009395
12:00+21з5669100 0.0 10091056
15:00+19з5678100 0.1 1010661
18:00+19з2477100 0.0 1010301
21:00+16зюз338460 0.1 101129
19 мая, ср
ср1900:00+15ююз338867 0.0 101029
03:00+14юз349193 0.0 101061
06:00+15юз3593100 0.4 1011150
09:00+14зюз61287100 0.6 1012497
12:00+16юз6876100 0.3 1013859
15:00+18юз71169100 0.6 10131526
18:00+16зюз711805 0.9 10131060
21:00+13юз613885 1.1 1014540
20 мая, чт
чт2000:00+13юз714895 0.0 1015679
03:00+13юз7148893 0.0 1016684
06:00+12юз613910 0.0 1017592
09:00+17зюз710703 0.0 1017902
12:00+20юз455689 0.0 10181342
15:00+22юз2251100 0.0 10171407
18:00+21вюв23640 0.0 1017264
21:00+15в34730 0.0 101743